Location: Barton Flats Campground
(34.1722°N, 116.8753°W)
Time: 19:28:51
(UTC+00:00)

Cosmos 1709 Rocket - Pass Details

Date: 08 August 2020
Orbit: 947 x 1002 km, 82.9° (Epoch: 01 October)

Event Time Altitude Azimuth Distance (km) Brightness Sun altitude
Rises 12:22:48 0° 354° (N) 3,660 7.3 -8.7°
Reaches altitude 10° 12:25:20 10° 355° (N) 2,703 6.6 -8.2°
Maximum altitude 12:31:31 84° 84° (E) 963 4.1 -7.1°
Drops below altitude 10° 12:37:37 10° 173° (S) 2,662 6.1 -5.9°
Sets 12:40:05 0° 174° (S) 3,601 6.8 -5.5°
